DW2227 Weather Reports


Display with metric or nautical units.
time (UTC)temp
F
wind
direction
speed
MPH
gust
MPH
rain 1hr
in
rain 24hr
in
rain mn
in
humidity
%
barometer
mb
20260902011829 81 117 0.0 0.0 0.00 0.00 0.00 86 1013.6
20260902011324 81 117 0.0 0.0 0.00 0.00 0.00 85 1013.5
20260902010819 81 117 0.0 0.0 0.00 0.00 0.00 85 1013.4
20260902010332 82 117 0.0 0.0 0.00 0.00 0.00 85 1013.4
20260902005825 82 117 0.0 0.0 0.00 0.00 0.00 85 1013.3
20260902005320 82 117 0.0 0.0 0.00 0.00 0.00 84 1013.3
20260902004854 83 117 0.0 0.0 0.00 0.00 0.00 84 1013.3
20260902004329 83 117 0.0 0.0 0.00 0.00 0.00 83 1013.3
20260902003823 83 117 0.0 0.0 0.00 0.00 0.00 83 1013.3
20260902003318 84 117 0.0 0.0 0.00 0.00 0.00 82 1013.3
20260902002832 84 117 0.0 0.0 0.00 0.00 0.00 81 1013.3
20260902002325 85 117 0.0 0.0 0.00 0.00 0.00 80 1013.3
20260902001821 85 117 0.0 0.0 0.00 0.00 0.00 79 1013.3
20260902001354 85 117 0.0 0.0 0.00 0.00 0.00 78 1013.4
20260902000844 86 117 0.0 0.0 0.00 0.00 0.00 77 1013.5
20260902000338 86 117 0.0 0.0 0.00 0.00 0.00 76 1013.5
20260901235833 87 117 0.0 0.0 0.00 0.00 0.00 75 1013.5
20260901235329 87 117 0.0 0.0 0.00 0.00 0.00 73 1013.5
20260901234825 88 117 0.0 0.0 0.00 0.00 0.00 72 1013.5
20260901234339 89 117 0.0 0.0 0.00 0.00 0.00 70 1013.5
20260901233833 89 117 0.0 0.0 0.00 0.00 0.00 69 1013.5
20260901233327 90 117 0.0 0.0 0.00 0.00 0.00 67 1013.5
20260901232842 90 117 0.0 0.0 0.00 0.00 0.00 68 1013.6
20260901232330 91 117 0.0 0.0 0.00 0.00 0.00 67 1013.6
20260901231826 91 117 0.0 0.0 0.00 0.00 0.00 65 1013.5
20260901231321 91 117 0.0 0.0 0.00 0.00 0.00 63 1013.6
20260901230816 91 99 0.0 0.0 0.00 0.00 0.00 61 1013.6
20260901230330 92 99 0.0 1.0 0.00 0.00 0.00 62 1013.5
20260901225826 92 123 0.0 1.0 0.00 0.00 0.00 61 1013.6
20260901225322 92 111 0.0 0.0 0.00 0.00 0.00 60 1013.5
20260901224835 92 111 0.0 1.0 0.00 0.00 0.00 59 1013.6
20260901224328 93 111 0.0 2.0 0.00 0.00 0.00 58 1013.5
20260901223824 93 103 0.0 2.0 0.00 0.00 0.00 58 1013.7
20260901223338 93 199 0.0 3.0 0.00 0.00 0.00 57 1013.7
20260901222831 93 67 0.0 3.0 0.00 0.00 0.00 56 1013.6
20260901222326 93 120 0.0 1.0 0.00 0.00 0.00 58 1013.6
20260901221821 93 167 0.0 1.0 0.00 0.00 0.00 58 1013.7
20260901221316 94 250 0.0 2.0 0.00 0.00 0.00 59 1013.6
20260901220832 94 238 0.0 2.0 0.00 0.00 0.00 59 1013.6
20260901220326 94 246 0.0 1.0 0.00 0.00 0.00 58 1013.6
20260901215821 94 180 0.0 1.0 0.00 0.00 0.00 57 1013.7
20260901215332 95 180 0.0 2.0 0.00 0.00 0.00 57 1013.7
20260901214827 95 250 0.0 2.0 0.00 0.00 0.00 59 1013.7
20260901214322 95 148 0.0 2.0 0.00 0.00 0.00 57 1013.7
20260901213843 95 150 0.0 2.0 0.00 0.00 0.00 55 1013.7
20260901213331 95 51 0.0 4.0 0.00 0.00 0.00 55 1013.7
20260901212825 96 314 0.0 4.0 0.00 0.00 0.00 55 1013.7
20260901212319 95 277 1.0 3.0 0.00 0.00 0.00 55 1013.7
20260901211834 95 287 1.0 3.0 0.00 0.00 0.00 55 1013.7
20260901211328 95 260 0.0 2.0 0.00 0.00 0.00 58 1013.8
20260901210822 95 130 0.0 1.0 0.00 0.00 0.00 57 1013.8
20260901210356 95 215 0.0 1.0 0.00 0.00 0.00 60 1013.8
20260901205850 95 119 0.0 1.0 0.00 0.00 0.00 57 1013.9
20260901205324 96 119 0.0 2.0 0.00 0.00 0.00 56 1014.0
20260901204819 96 35 0.0 2.0 0.00 0.00 0.00 56 1014.0
20260901204334 96 287 1.0 2.0 0.00 0.00 0.00 56 1013.9
20260901203828 96 150 0.0 2.0 0.00 0.00 0.00 55 1014.0
20260901203343 96 184 1.0 2.0 0.00 0.00 0.00 52 1013.9
20260901202836 96 328 0.0 2.0 0.00 0.00 0.00 55 1013.9
20260901202331 96 339 1.0 4.0 0.00 0.00 0.00 53 1014.0
20260901201824 96 296 0.0 4.0 0.00 0.00 0.00 52 1014.1
20260901201318 96 165 0.0 3.0 0.00 0.00 0.00 56 1014.1
20260901200832 96 214 1.0 3.0 0.00 0.00 0.00 54 1014.1
20260901200325 96 324 0.0 2.0 0.00 0.00 0.00 56 1014.1
20260901195840 95 200 1.0 3.0 0.00 0.00 0.00 54 1014.2
20260901195334 95 10 1.0 3.0 0.00 0.00 0.00 55 1014.2
20260901194823 95 5 1.0 3.0 0.00 0.00 0.00 55 1014.2
20260901194334 95 328 1.0 3.0 0.00 0.00 0.00 57 1014.3
20260901193830 95 126 1.0 3.0 0.00 0.00 0.00 54 1014.3
20260901193324 95 70 0.0 2.0 0.00 0.00 0.00 59 1014.3
20260901192819 95 54 0.0 2.0 0.00 0.00 0.00 59 1014.3
20260901192332 95 320 0.0 4.0 0.00 0.00 0.00 58 1014.3
20260901191828 95 277 1.0 4.0 0.00 0.00 0.00 56 1014.3
20260901191324 96 306 0.0 2.0 0.00 0.00 0.00 58 1014.4
20260901190821 95 305 0.0 3.0 0.00 0.00 0.00 56 1014.4
20260901190356 96 225 1.0 5.0 0.00 0.00 0.00 55 1014.5
20260901185830 96 330 1.0 5.0 0.00 0.00 0.00 57 1014.5
20260901185326 95 348 1.0 4.0 0.00 0.00 0.00 56 1014.6
20260901184840 95 210 0.0 4.0 0.00 0.00 0.00 58 1014.6
20260901184334 95 142 0.0 3.0 0.00 0.00 0.00 57 1014.6
20260901183829 95 244 1.0 3.0 0.00 0.00 0.00 54 1014.6
20260901183324 95 329 0.0 4.0 0.00 0.00 0.00 56 1014.6
20260901182819 95 227 1.0 4.0 0.00 0.00 0.00 56 1014.6
20260901182334 95 355 1.0 3.0 0.00 0.00 0.00 54 1014.7
20260901181849 95 98 0.0 3.0 0.00 0.00 0.00 56 1014.7
20260901181322 94 122 1.0 4.0 0.00 0.00 0.00 56 1014.7
20260901180818 94 130 1.0 4.0 0.00 0.00 0.00 56 1014.7
20260901180351 94 142 0.0 2.0 0.00 0.00 0.00 59 1014.7
20260901175844 94 290 0.0 2.0 0.00 0.00 0.00 58 1014.8
20260901175318 94 257 0.0 3.0 0.00 0.00 0.00 62 1014.8
20260901174833 94 122 1.0 4.0 0.00 0.00 0.00 59 1014.9
20260901174328 94 229 1.0 4.0 0.00 0.00 0.00 59 1014.9
20260901173822 94 255 1.0 3.0 0.00 0.00 0.00 59 1014.9
20260901173354 94 36 0.0 2.0 0.00 0.00 0.00 60 1014.9
20260901172846 93 343 0.0 2.0 0.00 0.00 0.00 61 1015.0
20260901172319 93 242 1.0 3.0 0.00 0.00 0.00 58 1015.0
20260901171833 93 271 1.0 5.0 0.00 0.00 0.00 59 1015.0
20260901171327 93 205 1.0 5.0 0.00 0.00 0.00 61 1015.1
20260901170821 92 244 1.0 2.0 0.00 0.00 0.00 61 1015.0
20260901170317 92 55 1.0 3.0 0.00 0.00 0.00 64 1015.1
20260901165826 92 249 1.0 3.0 0.00 0.00 0.00 64 1015.2
20260901165319 92 168 0.0 3.0 0.00 0.00 0.00 63 1015.2
20260901164853 91 132 0.0 4.0 0.00 0.00 0.00 66 1015.2
20260901164326 91 325 1.0 4.0 0.00 0.00 0.00 64 1015.2
20260901163819 90 306 1.0 2.0 0.00 0.00 0.00 66 1015.1
20260901163354 90 250 0.0 2.0 0.00 0.00 0.00 68 1015.2
20260901162827 90 273 1.0 2.0 0.00 0.00 0.00 70 1015.2
20260901162320 90 305 0.0 2.0 0.00 0.00 0.00 72 1015.2
20260901161834 89 97 0.0 5.0 0.00 0.00 0.00 71 1015.1
20260901161329 89 360 1.0 5.0 0.00 0.00 0.00 71 1015.2
20260901160822 88 233 1.0 3.0 0.00 0.00 0.00 74 1015.2
20260901160330 88 344 1.0 3.0 0.00 0.00 0.00 73 1015.2
20260901155825 88 242 1.0 3.0 0.00 0.00 0.00 73 1015.2
20260901155320 87 190 0.0 2.0 0.00 0.00 0.00 75 1015.3
20260901154832 87 111 0.0 2.0 0.00 0.00 0.00 76 1015.2
20260901154328 87 111 0.0 2.0 0.00 0.00 0.00 74 1015.2
20260901153823 87 80 0.0 2.0 0.00 0.00 0.00 75 1015.3
20260901153332 86 256 1.0 2.0 0.00 0.00 0.00 74 1015.4
20260901152827 86 256 0.0 1.0 0.00 0.00 0.00 75 1015.4
20260901152320 86 256 0.0 1.0 0.00 0.00 0.00 78 1015.3
20260901151834 86 256 0.0 4.0 0.00 0.00 0.00 76 1015.4
20260901151328 85 325 0.0 4.0 0.00 0.00 0.00 75 1015.4
20260901150822 85 277 0.0 1.0 0.00 0.00 0.00 78 1015.4
20260901150335 85 250 0.0 1.0 0.00 0.00 0.00 78 1015.4
20260901145830 84 223 0.0 3.0 0.00 0.00 0.00 78 1015.4
20260901145344 84 9 1.0 3.0 0.00 0.00 0.00 77 1015.5
20260901144818 84 186 1.0 3.0 0.00 0.00 0.00 78 1015.5
20260901144333 83 203 1.0 3.0 0.00 0.00 0.00 78 1015.3
20260901143829 83 306 0.0 2.0 0.00 0.00 0.00 79 1015.4
20260901143323 83 124 0.0 1.0 0.00 0.00 0.00 79 1015.4
20260901142843 82 194 0.0 2.0 0.00 0.00 0.00 79 1015.5
20260901142357 82 165 0.0 3.0 0.00 0.00 0.00 79 1015.5
20260901141830 81 275 0.0 3.0 0.00 0.00 0.00 81 1015.5
20260901141324 81 244 0.0 3.0 0.00 0.00 0.00 81 1015.4
20260901140817 80 334 1.0 3.0 0.00 0.00 0.00 82 1015.4
20260901140332 80 338 0.0 1.0 0.00 0.00 0.00 83 1015.5
20260901135827 79 84 0.0 1.0 0.00 0.00 0.00 84 1015.5
20260901135319 79 260 0.0 1.0 0.00 0.00 0.00 85 1015.5
20260901134832 79 273 0.0 1.0 0.00 0.00 0.00 86 1015.6
20260901134327 78 273 0.0 1.0 0.00 0.00 0.00 85 1015.6
20260901133821 78 273 0.0 1.0 0.00 0.00 0.00 86 1015.6
20260901133335 78 216 0.0 2.0 0.00 0.00 0.00 88 1015.6
20260901132849 77 216 0.0 2.0 0.00 0.00 0.00 87 1015.6
20260901132339 77 202 0.0 1.0 0.00 0.00 0.00 89 1015.5
20260901131831 77 101 0.0 1.0 0.00 0.00 0.00 89 1015.5
20260901131327 77 122 0.0 0.0 0.00 0.00 0.00 89 1015.5
20260901130821 76 122 0.0 0.0 0.00 0.00 0.00 89 1015.5
20260901130335 76 122 0.0 0.0 0.00 0.00 0.00 89 1015.5
20260901125828 76 122 0.0 0.0 0.00 0.00 0.00 89 1015.5
20260901125343 76 122 0.0 0.0 0.00 0.00 0.00 90 1015.5
20260901124832 76 122 0.0 0.0 0.00 0.00 0.00 90 1015.4
20260901124344 76 122 0.0 0.0 0.00 0.00 0.00 89 1015.3
20260901123817 75 122 0.0 0.0 0.00 0.00 0.00 89 1015.2
20260901123334 75 122 0.0 0.0 0.00 0.00 0.00 89 1015.2
20260901122828 75 122 0.0 0.0 0.00 0.00 0.00 90 1015.2
20260901122322 75 122 0.0 0.0 0.00 0.00 0.00 89 1015.2
20260901121817 75 122 0.0 0.0 0.00 0.00 0.00 89 1015.2
20260901121332 75 122 0.0 0.0 0.00 0.00 0.00 90 1015.0
20260901120825 75 122 0.0 0.0 0.00 0.00 0.00 89 1014.9
20260901120340 75 122 0.0 0.0 0.00 0.00 0.00 89 1015.0
20260901115834 75 122 0.0 0.0 0.00 0.00 0.00 89 1014.9
20260901115328 75 122 0.0 0.0 0.00 0.00 0.00 89 1014.9
20260901114824 75 122 0.0 0.0 0.00 0.00 0.00 89 1014.8
20260901114319 75 122 0.0 0.0 0.00 0.00 0.00 89 1014.7
20260901113833 75 122 0.0 0.0 0.00 0.00 0.00 89 1014.6
20260901113329 75 122 0.0 0.0 0.00 0.00 0.00 89 1014.6
20260901112825 75 122 0.0 0.0 0.00 0.00 0.00 89 1014.6
20260901112319 75 122 0.0 0.0 0.00 0.00 0.00 89 1014.6
20260901111832 75 122 0.0 0.0 0.00 0.00 0.00 89 1014.5
20260901111327 75 122 0.0 0.0 0.00 0.00 0.00 89 1014.6
20260901110841 75 132 0.0 0.0 0.00 0.00 0.00 89 1014.5
20260901110331 75 132 0.0 0.0 0.00 0.00 0.00 89 1014.5
20260901105828 75 132 0.0 1.0 0.00 0.00 0.00 89 1014.4
20260901105322 75 132 0.0 1.0 0.00 0.00 0.00 90 1014.4
20260901104817 75 181 0.0 0.0 0.00 0.00 0.00 90 1014.4
20260901104334 75 181 0.0 0.0 0.00 0.00 0.00 90 1014.4
20260901103829 75 181 0.0 0.0 0.00 0.00 0.00 90 1014.4
20260901103324 75 181 0.0 0.0 0.00 0.00 0.00 90 1014.4
20260901102820 75 181 0.0 0.0 0.00 0.00 0.00 89 1014.3
20260901102334 75 181 0.0 0.0 0.00 0.00 0.00 89 1014.4
20260901101828 75 181 0.0 0.0 0.00 0.00 0.00 89 1014.3
20260901101344 75 181 0.0 0.0 0.00 0.00 0.00 89 1014.3
20260901100843 75 181 0.0 0.0 0.00 0.00 0.00 89 1014.3
20260901100332 76 181 0.0 0.0 0.00 0.00 0.00 89 1014.2
20260901095824 76 181 0.0 0.0 0.00 0.00 0.00 89 1014.2
20260901095338 76 181 0.0 0.0 0.00 0.00 0.00 89 1014.1
20260901094834 76 181 0.0 0.0 0.00 0.00 0.00 89 1014.0
20260901094327 76 181 0.0 0.0 0.00 0.00 0.00 89 1014.0
20260901093822 76 181 0.0 0.0 0.00 0.00 0.00 89 1014.0
20260901093318 76 181 0.0 0.0 0.00 0.00 0.00 89 1014.0
20260901092853 76 181 0.0 0.0 0.00 0.00 0.00 88 1014.1
20260901092347 76 181 0.0 1.0 0.00 0.00 0.00 88 1014.1
20260901091819 76 195 0.0 1.0 0.00 0.00 0.00 88 1014.1
20260901091327 76 195 0.0 0.0 0.00 0.00 0.00 89 1014.0
20260901090823 76 195 0.0 1.0 0.00 0.00 0.00 89 1014.0
20260901090318 76 195 0.0 1.0 0.00 0.00 0.00 89 1014.1
20260901085833 76 182 0.0 0.0 0.00 0.00 0.00 89 1014.0
20260901085322 76 182 0.0 1.0 0.00 0.00 0.00 89 1014.1
20260901084854 76 182 0.0 1.0 0.00 0.00 0.00 89 1014.0
20260901084325 76 243 0.0 1.0 0.00 0.00 0.00 90 1014.0
20260901083819 76 243 0.0 1.0 0.00 0.00 0.00 90 1014.0
20260901083334 76 202 0.0 1.0 0.00 0.00 0.00 90 1014.0
20260901082831 75 248 0.0 0.0 0.00 0.00 0.00 90 1014.0
20260901082325 75 248 0.0 0.0 0.00 0.00 0.00 90 1014.0
20260901081819 75 248 0.0 0.0 0.00 0.00 0.00 90 1014.0
20260901081334 75 248 0.0 0.0 0.00 0.00 0.00 90 1014.1
20260901080848 75 248 0.0 0.0 0.00 0.00 0.00 90 1014.1
20260901080342 76 248 0.0 0.0 0.00 0.00 0.00 89 1014.1
20260901075850 76 248 0.0 0.0 0.00 0.00 0.00 90 1014.1
20260901075322 76 248 0.0 0.0 0.00 0.00 0.00 90 1014.1
20260901074817 76 248 0.0 0.0 0.00 0.00 0.00 90 1014.1
20260901074332 76 248 0.0 0.0 0.00 0.00 0.00 90 1014.1
20260901073845 76 248 0.0 0.0 0.00 0.00 0.00 90 1014.0
20260901073318 76 248 0.0 0.0 0.00 0.00 0.00 90 1014.1
20260901072847 76 248 0.0 0.0 0.00 0.00 0.00 90 1014.1
20260901072322 76 248 0.0 0.0 0.00 0.00 0.00 90 1014.1
20260901071817 76 248 0.0 1.0 0.00 0.00 0.00 90 1014.1
20260901071332 76 248 0.0 1.0 0.00 0.00 0.00 90 1014.1
20260901070827 76 248 0.0 0.0 0.00 0.00 0.00 90 1014.1
20260901070322 76 248 0.0 1.0 0.00 0.00 0.00 90 1014.1
20260901065818 76 248 0.0 1.0 0.00 0.00 0.00 90 1014.0
20260901065334 76 248 0.0 0.0 0.00 0.00 0.00 90 1014.1
20260901064829 76 248 0.0 0.0 0.00 0.00 0.00 89 1014.1
20260901064324 76 248 0.0 0.0 0.00 0.00 0.00 89 1014.2
20260901063817 76 248 0.0 0.0 0.00 0.00 0.00 89 1014.2
20260901063333 76 248 0.0 0.0 0.00 0.00 0.00 89 1014.2
20260901062829 76 248 0.0 0.0 0.00 0.00 0.00 89 1014.2
20260901062320 77 248 0.0 0.0 0.00 0.00 0.00 89 1014.2
20260901061831 77 248 0.0 0.0 0.00 0.00 0.00 89 1014.2
20260901061325 77 248 0.0 0.0 0.00 0.00 0.00 89 1014.2
20260901060818 77 248 0.0 0.0 0.00 0.00 0.00 89 1014.3
20260901060333 77 248 0.0 0.0 0.00 0.00 0.00 89 1014.3
20260901055829 77 248 0.0 0.0 0.00 0.00 0.00 89 1014.2
20260901055323 77 248 0.0 0.0 0.00 0.00 0.00 89 1014.1
20260901054838 77 248 0.0 0.0 0.00 0.00 0.00 89 1014.2
20260901054332 77 248 0.0 0.0 0.00 0.00 0.00 89 1014.1
20260901053826 77 248 0.0 0.0 0.00 0.00 0.00 89 1014.1
20260901053317 77 248 0.0 0.0 0.00 0.00 0.00 89 1014.0
20260901052832 77 248 0.0 0.0 0.00 0.00 0.00 89 1013.9
20260901052327 77 248 0.0 0.0 0.00 0.00 0.00 89 1013.9
20260901051820 77 248 0.0 0.0 0.00 0.00 0.00 90 1013.9
20260901051334 77 248 0.0 0.0 0.00 0.00 0.00 90 1013.9
20260901050829 77 248 0.0 0.0 0.00 0.00 0.00 90 1013.8
20260901050343 77 248 0.0 0.0 0.00 0.00 0.00 90 1013.8
20260901045824 77 248 0.0 0.0 0.00 0.00 0.00 90 1013.7
20260901045317 76 248 0.0 0.0 0.00 0.00 0.00 90 1013.8
20260901044826 76 248 0.0 0.0 0.00 0.00 0.00 90 1013.8
20260901044321 76 248 0.0 0.0 0.00 0.00 0.00 90 1013.9
20260901043835 76 248 0.0 0.0 0.00 0.00 0.00 90 1013.9
20260901043329 76 248 0.0 0.0 0.00 0.00 0.00 90 1013.9
20260901042842 76 248 0.0 0.0 0.00 0.00 0.00 90 1013.8
20260901042335 76 248 0.0 0.0 0.00 0.00 0.00 90 1013.8
20260901041830 76 248 0.0 1.0 0.00 0.00 0.00 90 1013.9
20260901041324 76 248 0.0 1.0 0.00 0.00 0.00 90 1013.9
20260901040817 76 248 0.0 0.0 0.00 0.00 0.00 90 1013.9
20260901040332 76 248 0.0 0.0 0.00 0.00 0.00 90 1013.9
20260901035827 77 248 0.0 0.0 0.00 0.00 0.00 90 1013.9
20260901035320 77 248 0.0 0.0 0.00 0.00 0.00 90 1013.9
20260901034856 77 248 0.0 0.0 0.00 0.00 0.00 90 1013.9
20260901034330 77 248 0.0 0.0 0.00 0.00 0.00 90 1013.9
20260901033844 77 248 0.0 0.0 0.00 0.00 0.00 90 1013.8
20260901033329 77 248 0.0 0.0 0.00 0.00 0.00 89 1013.9
20260901032824 77 248 0.0 0.0 0.00 0.00 0.00 89 1013.8
20260901032317 77 248 0.0 0.0 0.00 0.00 0.00 90 1013.8
20260901031827 77 248 0.0 0.0 0.00 0.00 0.00 89 1013.7
20260901031323 77 248 0.0 0.0 0.00 0.00 0.00 89 1013.8
20260901030839 77 248 0.0 0.0 0.00 0.00 0.00 89 1013.8
20260901030326 78 248 0.0 0.0 0.00 0.00 0.00 89 1013.8
20260901025821 78 248 0.0 0.0 0.00 0.00 0.00 89 1013.9
20260901025318 78 248 0.0 0.0 0.00 0.00 0.00 89 1013.8
20260901024832 78 248 0.0 0.0 0.00 0.00 0.00 89 1013.8
20260901024325 78 248 0.0 0.0 0.00 0.00 0.00 89 1013.9
20260901023819 78 248 0.0 0.0 0.00 0.00 0.00 89 1013.8
20260901023354 78 248 0.0 0.0 0.00 0.00 0.00 89 1013.8
20260901022828 79 248 0.0 0.0 0.00 0.00 0.00 89 1013.9
20260901022323 79 248 0.0 0.0 0.00 0.00 0.00 89 1013.8
20260901021817 79 248 0.0 0.0 0.00 0.00 0.00 89 1013.7
20260901021333 79 248 0.0 0.0 0.00 0.00 0.00 89 1013.4
20260901020826 79 248 0.0 0.0 0.00 0.00 0.00 88 1013.5
20260901020320 79 248 0.0 0.0 0.00 0.00 0.00 88 1013.4
20260901015835 80 248 0.0 0.0 0.00 0.00 0.00 88 1013.4
20260901015329 80 248 0.0 0.0 0.00 0.00 0.00 88 1013.3
20260901014824 80 248 0.0 0.0 0.00 0.00 0.00 88 1013.3
20260901014340 80 248 0.0 0.0 0.00 0.00 0.00 87 1013.3
20260901013853 80 248 0.0 0.0 0.00 0.00 0.00 87 1013.3
20260901013347 81 248 0.0 0.0 0.00 0.00 0.00 87 1013.2
20260901012820 81 248 0.0 0.0 0.00 0.00 0.00 87 1013.1
20260901012316 81 248 0.0 0.0 0.00 0.00 0.00 87 1013.1